Location: Ailingen
(47.6833°N, 9.5000°E)
Time: 05:25:44
(UTC+00:00)

Cosmos 1954 Rocket - Pass Details

Date: 18 November 2025
Orbit: 748 x 776 km, 74.0° (Epoch: 04 December)

Event Time Altitude Azimuth Distance (km) Brightness Sun altitude
Rises 18:06:31 0° 212° (SSW) 3,238 7.7 -24.1°
Reaches altitude 10° 18:08:55 10° 216° (SW) 2,312 6.9 -24.5°
Maximum altitude 18:14:06 59° 296° (WNW) 885 4.5 -25.4°
Enters shadow 18:16:52 27° 6° (N) 1,440 5.3 -25.8°
